Weather reports worldwide

Advertisment
Pertusato, France (7770): temperature & dewpoint: 18.06.2018 11:00:00 - 24.06.2018 11:00:00 (CEST)Pertusato, France (7770): wind speed & gusts: 18.06.2018 11:00:00 - 24.06.2018 11:00:00 (CEST)Pertusato, France (7770): wind direction: 18.06.2018 11:00:00 - 24.06.2018 11:00:00 (CEST)Pertusato, France (7770): reduced air pressure: 18.06.2018 11:00:00 - 24.06.2018 11:00:00 (CEST)Pertusato, France (7770): visibility: 18.06.2018 11:00:00 - 24.06.2018 11:00:00 (CEST)Pertusato, France (7770): precipitation: 18.06.2018 11:00:00 - 24.06.2018 11:00:00 (CEST)
Date & Time tt [°C] td [°C] ff [km/h] ff [kn] fx [km/h] fx [kn] dd ppp [hPa] vv [km] rr [mm]
24.06.2018 11:00:00 - - - - - - - - - -
24.06.2018 10:00:00 24,7 18,6 20 11 34 18 ENE 1016,3 - 0,0
24.06.2018 09:00:00 24,2 17,9 18 10 32 17 ENE 1016,2 - 0,0
24.06.2018 08:00:00 22,7 17,4 16 9 29 16 ENE 1016,2 20 0,0
24.06.2018 07:00:00 20,6 17,0 14 8 23 12 ENE 1016,0 - 0,0
24.06.2018 06:00:00 19,3 16,9 16 9 22 12 ENE 1015,7 - 0,0
24.06.2018 05:00:00 19,3 16,5 16 9 24 13 ENE 1015,7 15 0,0
24.06.2018 04:00:00 19,0 16,4 18 10 24 13 ENE 1015,8 - 0,0
24.06.2018 03:00:00 19,1 16,5 16 9 22 12 ENE 1016,1 - 0,0
24.06.2018 02:00:00 19,5 17,3 15 8 21 11 ENE 1016,2 - 0,0
24.06.2018 01:00:00 19,3 16,1 16 8 19 10 NE 1016,6 - 0,0
24.06.2018 00:00:00 19,2 16,4 13 7 16 9 ENE 1016,8 - 0,0
23.06.2018 23:00:00 19,8 15,9 10 6 19 10 NE 1016,6 - 0,0
23.06.2018 22:00:00 20,2 16,0 14 8 22 12 NE 1016,3 - 0,0
23.06.2018 21:00:00 21,0 16,4 14 8 21 12 NE 1015,6 - 0,0
23.06.2018 20:00:00 23,0 16,1 17 9 26 14 NE 1015,6 - 0,0
23.06.2018 19:00:00 24,4 16,6 18 10 28 15 ENE 1015,4 - 0,0
23.06.2018 18:00:00 25,2 16,6 22 12 32 17 NE 1015,9 - 0,0
23.06.2018 17:00:00 26,0 17,4 21 11 41 22 NE 1015,8 20 0,0
23.06.2018 16:00:00 26,5 17,0 25 14 42 23 NE 1016,0 - 0,0
23.06.2018 15:00:00 27,4 17,8 22 12 43 23 NE 1016,0 - 0,0
23.06.2018 14:00:00 26,8 17,3 26 14 45 24 ENE 1016,1 18 0,0
23.06.2018 13:00:00 27,0 18,6 24 13 45 24 ENE 1016,0 - 0,0
23.06.2018 12:00:00 26,3 18,7 27 15 46 25 ENE 1016,2 - 0,0
23.06.2018 11:00:00 25,6 18,8 29 15 49 26 NE 1015,9 17 0,0
23.06.2018 10:00:00 24,8 18,5 26 14 45 24 NE 1015,7 - 0,0
23.06.2018 09:00:00 23,3 18,8 24 13 44 24 NE 1015,3 - 0,0
23.06.2018 08:00:00 22,9 19,5 25 14 40 22 NE 1015,1 16 0,0
23.06.2018 07:00:00 20,5 17,1 7 4 20 11 NNW 1014,6 - 0,0
23.06.2018 06:00:00 20,7 16,5 14 7 21 11 WNW 1014,4 - 0,0
23.06.2018 05:00:00 20,7 16,3 16 9 26 14 W 1014,0 16 -
23.06.2018 04:00:00 20,9 15,9 15 8 26 14 W 1013,7 - 0,0
23.06.2018 03:00:00 21,2 15,7 11 6 34 18 W 1013,6 - 0,0
23.06.2018 02:00:00 21,0 15,3 12 6 37 20 W 1013,5 - 0,0
23.06.2018 01:00:00 21,1 15,6 15 8 46 25 WNW 1013,4 - 0,0
23.06.2018 00:00:00 21,3 15,4 15 8 39 21 WNW 1013,3 - 0,0
22.06.2018 23:00:00 21,3 15,4 24 13 37 20 W 1013,3 - -
22.06.2018 22:00:00 21,4 14,8 18 10 54 29 W 1012,8 - 0,0
22.06.2018 21:00:00 21,2 14,6 34 18 61 33 W 1011,6 - 0,0
22.06.2018 20:00:00 21,3 15,8 34 18 59 32 W 1011,3 14 -
22.06.2018 19:00:00 22,2 16,9 42 23 63 34 W 1011,6 - 0,0
22.06.2018 18:00:00 22,9 16,0 29 16 70 38 W 1010,6 - 0,0
22.06.2018 17:00:00 23,4 16,4 35 19 67 36 W 1010,7 16 -
22.06.2018 16:00:00 23,9 17,9 29 16 70 38 W 1011,1 - 0,0
22.06.2018 15:00:00 23,7 19,6 31 17 81 44 W 1011,0 - 0,0
22.06.2018 14:00:00 23,9 20,2 37 20 57 31 W 1012,1 13 -
22.06.2018 13:00:00 24,2 19,7 42 23 55 30 W 1012,4 - 0,0
22.06.2018 12:00:00 23,2 20,0 18 10 50 27 W 1013,0 - 0,0
22.06.2018 11:00:00 22,6 20,1 22 12 52 28 WNW 1012,9 13 -
22.06.2018 10:00:00 22,4 19,9 16 9 51 28 W 1013,0 - 0,0
22.06.2018 09:00:00 22,3 20,2 21 11 50 27 WNW 1013,2 - 0,0
22.06.2018 08:00:00 22,1 19,6 29 16 44 24 W 1013,5 15 -
22.06.2018 07:00:00 21,8 19,7 35 19 44 24 W 1013,3 - 0,0
22.06.2018 06:00:00 21,6 19,9 31 17 48 26 W 1013,7 - 0,0
22.06.2018 05:00:00 21,4 19,5 35 19 46 25 W 1013,7 15 -
22.06.2018 04:00:00 21,4 19,7 31 17 42 23 W 1014,0 - 0,0
22.06.2018 03:00:00 21,7 20,0 34 18 42 23 W 1014,5 - 0,0
22.06.2018 02:00:00 22,1 19,8 31 17 44 24 W 1014,7 - -
22.06.2018 01:00:00 22,3 20,2 16 9 37 20 W 1014,8 - 0,0
22.06.2018 00:00:00 22,5 20,0 15 8 35 19 W 1015,1 - 0,0
21.06.2018 23:00:00 22,4 19,9 13 7 37 20 W 1015,6 - -
21.06.2018 22:00:00 22,4 20,3 13 7 37 20 W 1015,4 - 0,0
21.06.2018 21:00:00 22,6 20,7 21 11 39 21 W 1014,8 - 0,0
21.06.2018 20:00:00 23,3 20,6 26 14 37 20 W 1014,6 20 -
21.06.2018 19:00:00 24,0 20,1 29 16 48 26 W 1014,8 - 0,0
21.06.2018 18:00:00 24,7 18,4 31 17 44 24 W 1014,8 - 0,0
21.06.2018 17:00:00 25,2 19,3 28 15 39 21 W 1015,2 20 -
21.06.2018 16:00:00 25,3 20,3 26 14 37 20 W 1015,8 - 0,0
21.06.2018 15:00:00 25,6 19,7 22 12 31 17 W 1016,0 - 0,0
21.06.2018 14:00:00 25,7 20,3 24 13 29 16 W 1016,2 20 -
21.06.2018 13:00:00 25,0 20,7 16 9 26 14 W 1016,9 - 0,0
21.06.2018 12:00:00 24,5 21,0 9 5 18 10 W 1017,3 - 0,0
21.06.2018 11:00:00 24,2 20,5 8 5 17 9 W 1017,1 16 0,0
21.06.2018 10:00:00 23,7 20,2 6 3 16 8 W 1017,2 - 0,0
21.06.2018 09:00:00 23,3 20,4 5 3 14 8 W 1017,4 - 0,0
21.06.2018 08:00:00 22,5 19,1 4 2 12 7 WNW 1017,4 20 0,0
21.06.2018 07:00:00 21,3 19,2 3 2 10 6 WSW 1017,4 - 0,0
21.06.2018 06:00:00 20,9 19,6 3 2 10 5 SSW 1017,5 - 0,0
21.06.2018 05:00:00 21,0 20,2 3 1 9 5 SSW 1017,4 15 0,0
21.06.2018 04:00:00 21,2 20,2 3 2 6 4 S 1017,4 - 0,0
21.06.2018 03:00:00 20,5 19,3 6 4 14 8 NE 1017,8 - 0,0
21.06.2018 02:00:00 20,5 19,3 10 5 13 7 ENE 1017,8 - 0,0
21.06.2018 01:00:00 20,7 19,5 10 5 11 6 ENE 1018,0 - 0,0
21.06.2018 00:00:00 20,8 19,5 9 5 11 6 ENE 1018,3 - 0,0
20.06.2018 23:00:00 21,1 19,6 10 6 16 9 ENE 1018,3 - 0,0
20.06.2018 22:00:00 21,4 19,3 14 8 17 9 ENE 1018,0 - 0,0
20.06.2018 21:00:00 22,2 18,8 15 8 18 10 ENE 1017,4 - 0,0
20.06.2018 20:00:00 24,5 19,1 16 8 23 12 ENE 1017,5 20 0,0
20.06.2018 19:00:00 26,2 17,6 14 7 24 13 ENE 1017,6 - 0,0
20.06.2018 18:00:00 27,3 14,7 17 9 27 15 ENE 1017,3 - 0,0
20.06.2018 17:00:00 28,6 14,1 16 9 30 16 ENE 1017,4 - 0,0
20.06.2018 16:00:00 29,5 14,9 15 8 29 16 ENE 1017,6 - 0,0
20.06.2018 15:00:00 28,9 15,8 17 9 29 16 ENE 1018,0 - 0,0
20.06.2018 14:00:00 29,5 15,2 16 8 26 14 ENE 1018,1 25 0,0
20.06.2018 13:00:00 28,8 15,7 18 10 29 16 ENE 1018,3 - 0,0
20.06.2018 12:00:00 28,4 17,3 17 9 30 16 ENE 1018,5 - 0,0
20.06.2018 11:00:00 27,8 16,7 19 11 32 17 ENE 1018,6 20 0,0
20.06.2018 10:00:00 27,7 14,7 15 8 26 14 ENE 1018,4 - 0,0
20.06.2018 09:00:00 25,4 16,8 5 3 19 10 N 1018,5 - 0,0
20.06.2018 08:00:00 23,2 17,6 5 3 9 5 WSW 1018,5 - 0,2
20.06.2018 07:00:00 21,5 19,8 5 3 8 4 W 1018,1 - 0,0
20.06.2018 06:00:00 21,0 20,0 5 3 8 4 SW 1017,8 - 0,0
20.06.2018 05:00:00 21,2 20,0 5 3 11 6 W 1017,8 - 0,0
20.06.2018 04:00:00 21,2 19,7 9 5 14 8 W 1017,8 - 0,0
20.06.2018 03:00:00 21,5 19,8 11 6 16 8 W 1017,9 - 0,0
20.06.2018 02:00:00 21,6 19,3 9 5 16 9 WSW 1017,9 - 0,0
20.06.2018 01:00:00 22,0 19,4 9 5 18 10 SSW 1018,0 - 0,0
20.06.2018 00:00:00 22,4 19,2 8 5 14 8 SW 1018,0 - 0,0
19.06.2018 23:00:00 22,4 17,7 2 1 10 5 S 1017,8 - 0,0
19.06.2018 22:00:00 22,6 15,7 6 3 20 11 WNW 1017,5 - 0,0
19.06.2018 21:00:00 23,4 15,7 14 8 21 11 W 1017,1 - 0,0
19.06.2018 20:00:00 24,6 16,3 16 9 21 12 WNW 1016,9 16 0,0
19.06.2018 19:00:00 25,7 16,8 14 8 29 15 WNW 1016,9 - 0,0
19.06.2018 18:00:00 26,1 17,7 14 8 25 13 WNW 1016,7 - 0,0
19.06.2018 17:00:00 26,5 19,6 14 8 22 12 WNW 1017,2 - 0,0
19.06.2018 16:00:00 29,0 17,8 10 6 39 21 NNE 1017,4 - 0,0
19.06.2018 15:00:00 29,5 12,4 24 13 45 25 NE 1017,7 - 0,0
19.06.2018 14:00:00 28,8 13,5 32 17 52 28 NE 1017,9 18 0,0
19.06.2018 13:00:00 28,8 13,1 32 17 54 29 NE 1018,4 - 0,0
19.06.2018 12:00:00 28,6 14,8 31 17 49 27 ENE 1018,2 - 0,0
19.06.2018 11:00:00 28,6 12,9 27 15 45 24 NE 1018,0 15 0,0
19.06.2018 10:00:00 25,8 15,5 15 8 35 19 NE 1018,2 - 0,0
19.06.2018 09:00:00 23,0 21,3 7 4 15 8 WSW 1017,7 - 0,0
19.06.2018 08:00:00 21,7 20,7 10 6 13 7 W 1017,4 - 0,0
19.06.2018 07:00:00 21,1 20,4 7 4 10 5 WSW 1017,3 - 0,0
19.06.2018 06:00:00 20,7 20,2 7 4 10 5 SSW 1016,9 - 0,0
19.06.2018 05:00:00 20,9 20,4 8 4 17 9 SW 1016,7 - 0,0
19.06.2018 04:00:00 20,8 20,1 11 6 19 11 W 1016,5 - 0,2
19.06.2018 03:00:00 20,9 20,2 11 6 16 9 WSW 1016,4 - 0,0
19.06.2018 02:00:00 21,1 20,3 10 6 19 10 WSW 1016,3 - 0,0
19.06.2018 01:00:00 21,4 20,4 9 5 17 9 SW 1016,4 - 0,0
19.06.2018 00:00:00 21,3 19,9 7 4 14 8 SW 1016,3 - 0,0
18.06.2018 23:00:00 21,6 19,7 10 6 16 9 SW 1016,3 - 0,0
18.06.2018 22:00:00 21,7 19,8 5 3 16 9 SSW 1015,9 - 0,0
18.06.2018 21:00:00 21,9 18,9 8 5 21 11 WNW 1015,1 - 0,0
18.06.2018 20:00:00 22,9 19,3 10 5 18 10 W 1015,0 - 0,0
18.06.2018 19:00:00 24,0 18,4 13 7 26 14 W 1014,7 - 0,0
18.06.2018 18:00:00 24,3 18,5 15 8 24 13 W 1014,6 - 0,0
18.06.2018 17:00:00 24,7 18,2 15 8 22 12 W 1014,7 12 0,0
18.06.2018 16:00:00 24,2 18,8 8 5 12 7 W 1014,8 - 0,0
18.06.2018 15:00:00 24,2 18,4 9 5 16 9 W 1015,1 - 0,0
18.06.2018 14:00:00 23,3 18,2 13 7 19 11 W 1015,3 - 0,0
18.06.2018 13:00:00 23,2 18,1 12 6 22 12 W 1015,6 - 0,0
18.06.2018 12:00:00 23,0 18,1 17 9 24 13 W 1015,5 - 0,0
18.06.2018 11:00:00 22,1 17,7 11 6 29 16 W 1015,2 - 0,0

tt = temperature
td = dewpoint
ff = wind speed
fx = gusts
dd = wind direction
ppp = reduced air pressure
vv = visibility
rr = precipitation

Next stations